Time,TemperatureF,DewpointF,PressureIn,WindDirection,WindDirectionDegrees,WindSpeedMPH,WindSpeedGustMPH,Humidity,HourlyPrecipIn,Conditions,Clouds,dailyrainin,SoftwareType,DateUTC
2013-04-10 00:00:00,43.2,41.8,29.96,SSE,156,2.3,4.0,94,0.00,n/a,n/a,-99.99,Henriksen +1-Wire,2013-04-10 04:00:00,
2013-04-10 00:01:00,43.2,41.8,29.96,SSE,155,2.0,4.0,94,0.00,n/a,n/a,-99.99,Henriksen +1-Wire,2013-04-10 04:01:00,
2013-04-10 02:02:00,43.0,42.9,29.96,SW,236,0.5,1.7,99,0.00,n/a,n/a,-99.99,Henriksen +1-Wire,2013-04-10 06:02:00,
2013-04-10 02:03:00,43.1,42.9,29.96,WSW,247,0.2,1.7,99,0.00,n/a,n/a,-99.99,Henriksen +1-Wire,2013-04-10 06:03:00,
2013-04-10 02:05:00,43.1,42.9,29.96,SW,225,0.0,1.6,99,0.00,n/a,n/a,-99.99,Henriksen +1-Wire,2013-04-10 06:05:00,
2013-04-10 02:12:00,43.1,42.8,29.96,South,182,0.0,0.0,98,0.00,n/a,n/a,-99.99,Henriksen +1-Wire,2013-04-10 06:12:00,
2013-04-10 04:17:00,43.1,43.1,29.92,SSW,204,0.1,3.2,100,0.12,n/a,n/a,-99.99,Henriksen +1-Wire,2013-04-10 08:17:00,
2013-04-10 04:22:00,43.1,43.1,29.93,SSE,164,0.0,2.4,100,0.10,n/a,n/a,-99.99,Henriksen +1-Wire,2013-04-10 08:22:00,
2013-04-10 06:23:00,42.9,42.9,29.91,East,92,0.0,0.0,100,0.00,n/a,n/a,-99.99,Henriksen +1-Wire,2013-04-10 10:23:00,
2013-04-10 06:28:00,42.9,42.9,29.91,ENE,71,0.0,0.0,100,0.00,n/a,n/a,-99.99,Henriksen +1-Wire,2013-04-10 10:28:00,
2013-04-10 06:33:00,43.0,43.0,29.92,NE,45,0.0,0.0,100,0.00,n/a,n/a,-99.99,Henriksen +1-Wire,2013-04-10 10:33:00,
2013-04-10 08:38:00,44.4,44.4,29.95,NE,45,0.1,3.2,100,0.00,n/a,n/a,-99.99,Henriksen +1-Wire,2013-04-10 12:38:00,
2013-04-10 08:43:00,44.5,44.5,29.95,SSW,199,0.9,2.4,100,0.00,n/a,n/a,-99.99,Henriksen +1-Wire,2013-04-10 12:43:00,
2013-04-10 08:48:00,44.6,44.6,29.95,SSW,201,0.0,1.6,100,0.00,n/a,n/a,-99.99,Henriksen +1-Wire,2013-04-10 12:48:00,
2013-04-10 08:53:00,44.8,44.8,29.95,SSW,195,0.1,1.6,100,0.00,n/a,n/a,-99.99,Henriksen +1-Wire,2013-04-10 12:53:00,
2013-04-10 08:58:00,44.9,44.9,29.95,SSW,195,1.0,1.7,100,0.00,n/a,n/a,-99.99,Henriksen +1-Wire,2013-04-10 12:58:00,
2013-04-10 09:03:00,44.9,44.9,29.94,South,171,0.4,1.7,100,0.00,n/a,n/a,-99.99,Henriksen +1-Wire,2013-04-10 13:03:00,
2013-04-10 09:08:00,44.9,44.9,29.94,SSE,153,0.0,1.6,100,0.00,n/a,n/a,-99.99,Henriksen +1-Wire,2013-04-10 13:08:00,
2013-04-10 09:23:00,45.1,45.1,29.95,ENE,61,0.6,1.2,100,0.00,n/a,n/a,-99.99,Henriksen +1-Wire,2013-04-10 13:23:00,
2013-04-10 09:28:00,45.3,45.3,29.95,ENE,75,1.3,2.4,100,0.00,n/a,n/a,-99.99,Henriksen +1-Wire,2013-04-10 13:28:00,
2013-04-10 09:34:00,45.5,45.5,29.95,ENE,75,0.0,2.4,100,0.00,n/a,n/a,-99.99,Henriksen +1-Wire,2013-04-10 13:34:00,
2013-04-10 11:37:00,48.8,46.8,29.96,SSW,197,2.5,4.8,92,0.00,n/a,n/a,-99.99,Henriksen +1-Wire,2013-04-10 15:37:00,
2013-04-10 11:42:00,49.1,46.9,29.95,SSW,205,3.4,5.0,92,0.00,n/a,n/a,-99.99,Henriksen +1-Wire,2013-04-10 15:42:00,
2013-04-10 13:47:00,48.2,45.6,29.94,South,187,5.0,8.0,90,0.00,n/a,n/a,-99.99,Henriksen +1-Wire,2013-04-10 17:47:00,
2013-04-10 13:52:00,48.2,45.7,29.94,South,187,5.1,7.7,91,0.00,n/a,n/a,-99.99,Henriksen +1-Wire,2013-04-10 17:52:00,
2013-04-10 13:57:00,48.1,45.7,29.94,South,187,5.3,9.5,91,0.00,n/a,n/a,-99.99,Henriksen +1-Wire,2013-04-10 17:57:00,
2013-04-10 14:02:00,48.3,45.9,29.94,South,185,4.3,9.5,91,0.00,n/a,n/a,-99.99,Henriksen +1-Wire,2013-04-10 18:02:00,
2013-04-10 16:03:00,47.2,44.8,29.87,South,180,3.9,6.3,91,0.00,n/a,n/a,-99.99,Henriksen +1-Wire,2013-04-10 20:03:00,
2013-04-10 16:08:00,47.2,44.8,29.86,South,184,3.2,6.3,91,0.00,n/a,n/a,-99.99,Henriksen +1-Wire,2013-04-10 20:08:00,
2013-04-10 16:14:00,47.1,44.8,29.85,SSW,194,5.1,7.9,91,0.00,n/a,n/a,-99.99,Henriksen +1-Wire,2013-04-10 20:14:00,
2013-04-10 16:19:00,47.2,44.9,29.86,SSW,192,5.6,8.6,91,0.00,n/a,n/a,-99.99,Henriksen +1-Wire,2013-04-10 20:19:00,
2013-04-10 16:24:00,47.3,44.9,29.86,SSW,206,4.5,8.6,91,0.00,n/a,n/a,-99.99,Henriksen +1-Wire,2013-04-10 20:24:00,
2013-04-10 18:27:00,45.5,43.9,29.87,South,181,3.6,5.9,94,0.00,n/a,n/a,-99.99,Henriksen +1-Wire,2013-04-10 22:27:00,
2013-04-10 18:32:00,45.3,43.9,29.87,SSE,167,3.7,5.9,94,0.00,n/a,n/a,-99.99,Henriksen +1-Wire,2013-04-10 22:32:00,
2013-04-10 18:38:00,45.2,43.9,29.87,South,178,2.1,5.9,95,0.00,n/a,n/a,-99.99,Henriksen +1-Wire,2013-04-10 22:38:00,
2013-04-10 20:42:00,44.0,43.9,29.89,South,169,2.2,4.2,99,0.13,n/a,n/a,-99.99,Henriksen +1-Wire,2013-04-11 00:42:00,
2013-04-10 20:47:00,43.9,43.9,29.89,SE,142,0.1,4.2,99,0.14,n/a,n/a,-99.99,Henriksen +1-Wire,2013-04-11 00:47:00,
2013-04-10 20:53:00,43.8,43.8,29.89,East,81,1.2,2.4,100,0.14,n/a,n/a,-99.99,Henriksen +1-Wire,2013-04-11 00:53:00,
2013-04-10 20:58:00,43.8,43.8,29.89,East,101,0.1,2.4,100,0.12,n/a,n/a,-99.99,Henriksen +1-Wire,2013-04-11 00:58:00,
2013-04-10 23:02:00,44.5,44.5,29.88,ENE,60,1.2,2.6,100,0.06,n/a,n/a,-99.99,Henriksen +1-Wire,2013-04-11 03:02:00,
2013-04-10 23:07:00,44.6,44.6,29.88,ENE,68,1.1,2.6,100,0.07,n/a,n/a,-99.99,Henriksen +1-Wire,2013-04-11 03:07:00,
2013-04-10 23:12:00,44.6,44.6,29.88,East,95,0.6,2.5,100,0.06,n/a,n/a,-99.99,Henriksen +1-Wire,2013-04-11 03:12:00,
2013-04-10 23:17:00,44.7,44.7,29.88,ENE,77,0.9,2.1,100,0.07,n/a,n/a,-99.99,Henriksen +1-Wire,2013-04-11 03:17:00,
2013-04-10 23:22:00,44.7,44.7,29.89,SSE,167,0.0,2.1,100,0.08,n/a,n/a,-99.99,Henriksen +1-Wire,2013-04-11 03:22:00,
2013-04-10 23:28:00,44.8,44.8,29.89,South,178,0.7,1.9,100,0.09,n/a,n/a,-99.99,Henriksen +1-Wire,2013-04-11 03:28:00,
2013-04-10 23:34:00,44.8,44.8,29.89,SE,141,2.0,4.3,100,0.09,n/a,n/a,-99.99,Henriksen +1-Wire,2013-04-11 03:34:00,
2013-04-10 23:39:00,44.8,44.8,29.89,SE,145,1.2,4.3,100,0.10,n/a,n/a,-99.99,Henriksen +1-Wire,2013-04-11 03:39:00,